Regional Weather Roundup
Issued by NWS

Home | Current Version | Previous Version | Graphics & Text | Print | Product List | Glossary On
Versions: 1 2 3 4 5 6 7 8 9 10 11 12 13 14 15 16 17 18 19 20 21 22 23 24 25 26 27 28 29 30 31 32 33 34 35 36 37 38 39 40 41 42 43 44 45 46 47 48 49 50
000
ASUS44 KMEG 031410
RWRTN
TENNESSEE HOURLY STATE WEATHER ROUNDUP
NATIONAL WEATHER SERVICE MEMPHIS TN
800 AM CST TUE MAR 03 2015

TNZ002-004-019-021-049-052-054-088>092-031500-
WEST TENNESSEE

CITY           SKY/WX    TMP DP  RH WIND       PRES   REMARKS
MEMPHIS INTL   DRZL/FOG  49  47  93 S8        30.07S VSB 1/2
NWS MEMPHIS      N/A     47 N/A N/A MISG        N/A
JACKSON        CLOUDY    50  47  89 S10       30.07S
DYERSBURG      CLOUDY    43  30  61 CALM      30.08S VSB 1/4
UNION CITY     CLOUDY    43  43 100 S8        30.04S VSB 0
PARIS          CLOUDY    45  45 100 S8        30.05S
LEXINGTON      CLOUDY    45  45 100 CALM      30.08S VSB 1/4
SAVANNAH       CLOUDY    48  48 100 S8        30.10F
$$

TNZ008-025-027-028-033-062-065-066-031500-
NORTH MIDDLE TENNESSEE

CITY           SKY/WX    TMP DP  RH WIND       PRES   REMARKS
NASHVILLE      CLOUDY    49  45  86 SE6       30.11F
CLARKSVILLE    CLOUDY    45  41  86 S6        30.07F
SMYRNA         CLOUDY    48  45  90 CALM      30.13F
COOKEVILLE       N/A     52  48  87 S8        30.13S
CROSSVILLE     CLOUDY    48  46  93 S5        30.16S FOG
$$

TNZ061-075-076-078-094-096-097-031500-
SOUTH MIDDLE TENNESSEE

CITY           SKY/WX    TMP DP  RH WIND       PRES   REMARKS
FAYETTEVILLE   CLOUDY    48  46  93 S6          N/A
TULLAHOMA      CLOUDY    46  46 100 CALM      30.16S VSB 1
WINCHESTER     CLOUDY    48  46  93 SE12      30.17S
MCMINNVILLE    CLOUDY    46  45  93 CALM      30.14S
COLUMBIA       CLOUDY   N/A N/A N/A S7        30.10F
SHELBYVILLE    CLOUDY    50  50 100 S5        30.16R
$$

TNZ017-018-042-046-047-031500-
NORTHEAST TENNESSEE

CITY           SKY/WX    TMP DP  RH WIND       PRES   REMARKS
TRI CITIES     LGT RAIN  41  33  73 CALM      30.21R
ELIZABETHTON   CLOUDY    45  39  81 E3        30.20R
$$

TNZ012-013-036-069-073-074-031500-
CENTRAL EAST TENNESSEE

CITY           SKY/WX    TMP DP  RH WIND       PRES   REMARKS
KNOXVILLE      CLOUDY    43  38  82 CALM      30.20R
OAK RIDGE      LGT RAIN  40  39  97 CALM      30.23R FOG
GATLINBURG     CLOUDY    41  37  87 CALM      30.19S
MORRISTOWN     CLOUDY    39  34  81 E3        30.19F
$$

TNZ083-085-099-031500-
SOUTHEAST TENNESSEE

CITY           SKY/WX    TMP DP  RH WIND       PRES   REMARKS
CHATTANOOGA    DRZL/FOG  44  43  96 CALM      30.23R VSB 1
$$

SKY/WX REPORTED AS FAIR MEANS FEW OR NO CLOUDS BELOW
12 THOUSAND FEET.



USA.gov is the U.S. government's official web portal to all federal, state and local government web resources and services.